Location: Taipo
(41.0000°S, 175.9500°E)
Time: 13:36:04
(UTC+00:00)

ISS - Visible Passes

Search period start: 21 June 2024 00:00
Search period end: 01 July 2024 00:00
Orbit: 411 x 425 km, 51.6° (Epoch: 21 June)

Date Brightness Start Highest point End Pass type
(mag) Time Alt. Az. Time Alt. Az. Time Alt. Az.
21 Jun -2.4 05:44:25 10° W 05:47:33 32° SSW 05:50:24 12° SE visible
21 Jun -0.7 07:23:07 10° SW 07:23:20 11° SW 07:23:20 11° SW visible
22 Jun -1.6 06:34:35 10° SW 06:36:51 16° SSW 06:37:15 16° S visible
23 Jun -1.7 05:46:00 10° WSW 05:48:35 19° SSW 05:51:07 10° SSE visible
24 Jun -1.4 06:36:06 10° SW 06:37:54 14° S 06:37:54 14° S visible
25 Jun -1.5 05:47:35 10° SW 05:49:38 15° S 05:51:40 10° SSE visible
26 Jun -1.4 06:36:57 10° SSW 06:38:28 15° S 06:38:28 15° S visible
27 Jun -1.5 05:48:40 10° SSW 05:50:36 14° S 05:52:17 11° SE visible
28 Jun -1.8 06:37:12 10° SSW 06:39:05 19° S 06:39:05 19° S visible
29 Jun -1.8 05:49:03 10° SSW 05:51:25 17° SSE 05:52:59 13° SE visible
29 Jun -0.9 07:25:23 10° SW 07:25:56 14° SW 07:25:56 14° SW visible
30 Jun -2.8 06:37:12 10° SW 06:39:55 34° S 06:39:55 34° S visible
